Flag for Canada Weather past 2 weeks in Quispamsis, New Brunswick, Canada

Now
68 °F

Low clouds.


Feels Like: 68 °F
Forecast: 56 / 68 °F
Wind: 14 mph from Southwest

Location: Saint John

Current Time: Jul 28, 2015 at 5:11:13 PM

Latest Report: Jul 28, 2015 at 4:00 PM


Visibility: 15 mi

Pressure: 29.93 "Hg

Humidity: 83%

Dew point: 63 °F

Location of QuispamsisLocation

Historic Weather in Quispamsis — Graph

°F

Quispamsis temperature yesterday

Maximum temperature yesterday: 68 °F (at 2:00 PM)
Minimum temperature yesterday: 57 °F (at 12:00 AM)
Average temperature yesterday: 62 °F

Past Weeks' High & Low Weather Summary

 TemperatureHumidityPressure
High81 °F (Jul 13, 4:00 PM)100% (Jul 14, 9:00 PM)30.11 "Hg (Jul 14, 9:00 PM)
Low41 °F (Jul 17, 5:00 AM)32% (Jul 13, 4:00 PM)29.54 "Hg (Jul 22, 7:00 AM)
Average62 °F85%29.88 "Hg
* Reported Jul 13 4:00 PM — Jul 28 4:00 PM, Quispamsis, Weather by CustomWeather, © 2015

Note: Actual official high and low records may vary slightly from our data, if they occured in-between our weather recording intervals... More about our weather records

Advertising

Quispamsis weather history for previous 24 hours

 ConditionsComfort  
Time TempWeatherWind HumidityBarometerVisibility
4:00 PM
Tue, Jul 28
68 °FLow clouds.14 mph83%29.93 "Hg15 mi
3:00 PM64 °FFog.10 mph94%29.95 "Hg3 mi
2:00 PM64 °FFog.8 mph94%29.95 "Hg3 mi
1:00 PM64 °FFog.6 mph100%29.95 "Hg3 mi
12:52 PM64 °FFog.2 mph100%29.95 "Hg3 mi
12:00 PM63 °FSprinkles. Fog.3 mph100%29.97 "Hg3 mi
11:49 AM63 °FSprinkles. Fog.2 mph100%29.96 "Hg2 mi
11:00 AM59 °FSprinkles. Fog.7 mph100%29.96 "Hg1 mi
10:52 AM61 °FSprinkles. Fog.2 mph100%29.96 "Hg1 mi
10:00 AM61 °FSprinkles. Fog.5 mph100%29.98 "Hg1 mi
9:00 AM63 °FFog.6 mph100%29.98 "Hg1 mi
8:47 AM61 °FFog.6 mph100%29.98 "Hg1 mi
8:00 AM59 °FFog.5 mph100%29.99 "Hg0 mi
7:00 AM59 °FDrizzle. Fog.5 mph100%29.99 "Hg0 mi
6:00 AM59 °FDrizzle. Fog.3 mph100%29.99 "Hg1 mi
5:00 AM59 °FDrizzle. Fog.7 mph100%29.99 "Hg0 mi
4:00 AM59 °FDrizzle. Fog.6 mph100%30.00 "Hg0 mi
3:00 AM61 °FDrizzle. Fog.6 mph100%30.02 "Hg0 mi
2:00 AM61 °FFog.7 mph100%30.03 "Hg0 mi
1:00 AM61 °FFog.6 mph100%30.04 "Hg1 mi
12:00 AM61 °FFog.7 mph100%30.05 "Hg0 mi
11:00 PM
Mon, Jul 27
61 °FFog.8 mph100%30.05 "Hg0 mi
10:00 PM61 °FFog.7 mph100%30.06 "Hg0 mi
9:00 PM61 °FFog.8 mph100%30.04 "Hg1 mi
8:00 PM63 °FDrizzle. Fog.7 mph100%30.04 "Hg3 mi
7:00 PM63 °FFog.7 mph94%30.04 "Hg4 mi
6:00 PM66 °FMostly cloudy.7 mph88%30.04 "Hg8 mi
5:00 PM64 °FMostly cloudy.8 mph88%30.06 "Hg12 mi
Weather by CustomWeather, © 2015

See weather overviewHow to use our weather pages